GW6731 Weather Reports


time (UTC)temp
F
wind
direction
speed
knots
gust
knots
rain 1hr
in
rain 24hr
in
rain mn
in
humidity
%
barometer
mb
20260504044532 51 333 11.3 20.0 0.00 0.00 0.00 41 1009.6
20260504043031 52 329 10.4 19.1 0.00 0.00 0.00 42 1009.7
20260504041531 53 360 11.3 19.1 0.00 0.00 0.00 42 1009.2
20260504040041 55 321 9.6 15.6 0.00 0.00 0.00 40 1009.2
20260504034536 55 315 7.8 14.8 0.00 0.00 0.00 39 1008.9
20260504033037 55 32 8.7 17.4 0.00 0.00 0.00 38 1008.7
20260504031537 56 330 8.7 13.9 0.00 0.00 0.00 38 1008.7
20260504030034 56 320 7.8 15.6 0.00 0.00 0.00 37 1008.4
20260504024533 56 336 7.0 13.9 0.00 0.00 0.00 39 1008.2
20260504023033 57 16 7.8 13.9 0.00 0.00 0.00 39 1008.2
20260504021550 59 42 7.0 13.9 0.00 0.00 0.00 37 1008.2
20260504020032 61 26 4.3 9.6 0.00 0.00 0.00 32 1008.3
20260504014532 63 15 4.3 11.3 0.00 0.00 0.00 30 1008.3
20260504013035 64 324 5.2 10.4 0.00 0.00 0.00 25 1008.5
20260504011534 66 342 4.3 11.3 0.00 0.00 0.00 23 1008.6
20260504010032 66 340 3.5 9.6 0.00 0.00 0.00 24 1008.6
20260504004539 67 338 6.1 12.2 0.00 0.00 0.00 23 1008.6
20260504003039 68 346 6.1 10.4 0.00 0.00 0.00 23 1008.8
20260504001538 68 292 5.2 10.4 0.00 0.00 0.00 24 1008.9
20260504000052 69 329 7.8 13.9 0.00 0.00 0.00 22 1009.0
20260503234533 70 9 7.0 13.0 0.00 0.00 0.00 22 1009.0
20260503233033 69 19 5.2 12.2 0.00 0.00 0.00 23 1009.2
20260503231532 70 290 6.1 11.3 0.00 0.00 0.00 22 1009.2
20260503230032 70 326 6.1 12.2 0.00 0.00 0.00 22 1009.3
20260503224530 70 348 5.2 13.0 0.00 0.00 0.00 23 1009.4
20260503223039 70 327 7.0 14.8 0.00 0.00 0.00 22 1009.4
20260503221546 70 264 5.2 13.0 0.00 0.00 0.00 22 1009.7
20260503220034 70 316 7.8 14.8 0.00 0.00 0.00 22 1009.7
20260503214533 70 313 5.2 13.0 0.00 0.00 0.00 23 1009.9
20260503213032 69 305 6.1 13.9 0.00 0.00 0.00 22 1010.1
20260503211533 69 301 6.1 14.8 0.00 0.00 0.00 24 1010.3
20260503210030 69 244 4.3 12.2 0.00 0.00 0.00 23 1010.4
20260503204529 69 290 4.3 13.9 0.00 0.00 0.00 24 1010.7
20260503203041 69 305 4.3 13.0 0.00 0.00 0.00 25 1010.7
20260503201536 68 305 5.2 13.9 0.00 0.00 0.00 23 1010.9
20260503200035 67 300 1.7 9.6 0.00 0.00 0.00 27 1011.1
20260503194534 67 344 7.0 12.2 0.00 0.00 0.00 25 1011.4
20260503193033 67 324 8.7 17.4 0.00 0.00 0.00 25 1011.7
20260503191530 67 319 6.1 13.9 0.00 0.00 0.00 29 1011.7
20260503190037 66 281 3.5 13.0 0.00 0.00 0.00 28 1011.9
20260503184533 64 317 2.6 8.7 0.00 0.00 0.00 28 1012.2
20260503183033 65 246 2.6 7.8 0.00 0.00 0.00 28 1012.3
20260503181532 65 277 3.5 12.2 0.00 0.00 0.00 28 1012.4
20260503180032 64 293 3.5 11.3 0.00 0.00 0.00 31 1012.5
20260503174534 65 309 5.2 10.4 0.00 0.00 0.00 28 1012.7
20260503173050 64 288 6.1 11.3 0.00 0.00 0.00 28 1012.9
20260503171537 63 346 7.0 13.0 0.00 0.00 0.00 29 1013.1
20260503081532 37 360 1.7 3.5 0.00 0.00 0.00 78 1015.8